Hourly Data Report for October 02, 2015

All times are specified in Local Standard Time (LST). Add 1 hour to adjust for Daylight Saving Time where and when it is observed.

PETAWAWA AWOS 2
ONTARIO

45°57'00.000" N
77°19'00.000" W
130.10 m
6106396
71625
YWA

Download Data

Hourly Data (October 2015)
Hourly Data Report for October 2, 2015
Temp Definition
°C
Dew Point Temp Definition
°C
Rel Hum Definition
%
Wind Dir Definition
10's deg

Wind Spd Definition
km/h
Visibility Definition
km
Stn Press Definition
kPa
Hmdx Definition


Wind Chill Definition


Weather Definition


TIME
00:00 7.6 -0.1 58 3 15 14.5 101.77     LegendNANA
01:00 7.0 -0.5 59 4 19 14.5 101.75     LegendNANA
02:00 6.7 -0.2 61 5 19 14.5 101.80     LegendNANA
03:00 6.0 -0.8 62 4 17 14.5 101.81     LegendNANA
04:00 5.7 -1.6 59 3 17 14.5 101.84     LegendNANA
05:00 5.3 -1.2 63 3 19 14.5 101.91     LegendNANA
06:00 5.0 -1.9 61 3 20 14.5 101.89     LegendNANA
07:00 5.1 -1.4 63 3 17 14.5 101.97     LegendNANA
08:00 6.6 -1.1 58 4 15 14.5 102.01     LegendNANA
09:00 8.4 -1.8 49 4 15 14.5 102.01     LegendNANA
10:00 10.0 -1.5 45 6 11 14.5 102.00     LegendNANA
11:00 10.7 -1.0 44 6 13 14.5 101.98     LegendNANA
12:00 11.8 -2.0 38 5 15 14.5 101.96     LegendNANA
13:00 12.5 -0.5 41 6 20 14.5 101.89     LegendNANA
14:00 12.1 -1.9 38 5 20 14.5 101.84     LegendNANA
15:00 12.2 -1.6 38 5 22 14.5 101.83     LegendNANA
16:00 11.9 -1.3 40 5 13 14.5 101.85     LegendNANA
17:00 11.3 -1.3 42 7 13 14.5 101.89     LegendNANA
18:00
19:00 9.7 -0.6 49 5 11 14.5 101.96     LegendNANA
20:00 9.5 -1.0 48 5 15 14.5 101.97     LegendNANA
21:00 8.6 -1.4 49 5 17 14.5 102.01     LegendNANA
22:00 8.1 -0.9 53 7 11 14.5 102.05     LegendNANA
23:00 7.0 -1.6 54 7 9 14.5 102.04     LegendNANA

Notes on Data Quality.

Legend

  • E = Estimated
  • M = Missing
  • NA = Not Available
  • ‡ = Partner data that is not subject to review by the National Climate Archives
Date modified: